This is the latest recevied weather packets stored in our database for station/object EA7OC-10. If no packets are shown the sender has not sent any weather packets the latest 10 day(s).
| Time | Temp. | Humidity | Pressure | Rain* | Wind** | Luminosity | Snow |
|---|---|---|---|---|---|---|---|
| 1777452503 | 22.78° C | 39% | 1011.4 hPa | - | - | - | - |
| 1777451603 | 22.78° C | 38% | 1011.4 hPa | - | - | - | - |
| 1777450703 | 22.22° C | 38% | 1011.3 hPa | - | - | - | - |
| 1777449803 | 22.22° C | 38% | 1011.3 hPa | - | - | - | - |
| 1777448903 | 22.22° C | 38% | 1011.1 hPa | - | - | - | - |
| 1777448003 | 22.22° C | 38% | 1011 hPa | - | - | - | - |
| 1777447102 | 21.67° C | 38% | 1010.9 hPa | - | - | - | - |
| 1777446202 | 21.11° C | 38% | 1010.8 hPa | - | - | - | - |
| 1777445302 | 21.11° C | 38% | 1010.8 hPa | - | - | - | - |
| 1777444402 | 20.56° C | 38% | 1010.7 hPa | - | - | - | - |
| 1777443502 | 20.56° C | 38% | 1010.6 hPa | - | - | - | - |
| 1777442602 | 20.56° C | 38% | 1010.4 hPa | - | - | - | - |
| 1777441702 | 20° C | 38% | 1010.3 hPa | - | - | - | - |
| 1777440802 | 20° C | 38% | 1010.1 hPa | - | - | - | - |
| 1777439902 | 20° C | 38% | 1010.1 hPa | - | - | - | - |
| 1777439001 | 20° C | 38% | 1010 hPa | - | - | - | - |
| 1777438101 | 20° C | 38% | 1010 hPa | - | - | - | - |
| 1777437201 | 20° C | 37% | 1010.1 hPa | - | - | - | - |
| 1777436301 | 20.56° C | 37% | 1010.1 hPa | - | - | - | - |
| 1777435401 | 20.56° C | 38% | 1010.2 hPa | - | - | - | - |
| 1777434501 | 20.56° C | 38% | 1010.4 hPa | - | - | - | - |
| 1777433601 | 20.56° C | 38% | 1010.5 hPa | - | - | - | - |
| 1777432701 | 20.56° C | 38% | 1010.4 hPa | - | - | - | - |
| 1777431801 | 20° C | 38% | 1010.4 hPa | - | - | - | - |
| 1777430901 | 20° C | 38% | 1010.4 hPa | - | - | - | - |
* Rain since midnight (hover to see other rain measurements)
** Current wind speed in m/s (hover to see current wind gust speed)